Change the Weather History Date:

Sunday, September 30, 2012

  Actual Average Record
Temperature  
Mean Temperature 54 °F 53 °F  
Max Temperature 66 °F 64 °F 87 °F (1897)
Min Temperature 41 °F 43 °F 25 °F (1899)
Degree Days  
Heating Degree Days 11 12  
Month to date heating degree days 229 207  
Since 1 July heating degree days 242 270  
Cooling Degree Days 0 0  
Month to date cooling degree days 41 33  
Year to date cooling degree days 786 395  
Growing Degree Days 4 (Base 50)    
Moisture  
Dew Point 45 °F    
Average Humidity 73    
Maximum Humidity 93    
Minimum Humidity 52    
Precipitation  
Precipitation 0.00 in 0.09 in 1.57 in (1961)
Month to date precipitation 1.09 3.04  
Year to date precipitation 23.02 23.44  
Snow  
Snow 0.00 in 0.00 in 0.00 in ()
Month to date snowfall 0.0 0.0  
Since 1 July snowfall 0.0 0.0  
Since 1 September snowfall 0.0 0.0  
Snow Depth 0.00 in    
Sea Level Pressure  
Sea Level Pressure 30.03 in    
Wind  
Wind Speed 4 mph (NNE)    
Max Wind Speed 9 mph    
Max Gust Speed 12 mph    
Visibility 10 miles    
Events      
T = Trace of Precipitation, MM = Missing Value Source: NWS Daily Summary

Daily Weather History Graph

Daily Weather History Graph

Search for Another Location

Airport or City:

Trip Planner

Search our weather history database for the weather conditions in past years. The results will help you decide how hot, cold, wet, or windy it might be!

Date:

Astronomy

Sep. 30, 2012 Rise Set
Actual Time 6:49 AM CDT 6:34 PM CDT
Civil Twilight 6:20 AM CDT 7:03 PM CDT
Nautical Twilight 5:46 AM CDT 7:36 PM CDT
Astronomical Twilight 5:12 AM CDT 8:10 PM CDT
Moon 6:33 PM CDT (9/30) 7:23 AM CDT (9/30)
Length of Visible Light 12h 42m
Length of Day
11h 44m
Full, 100% of the Moon is Illuminated
Sep 30
Full
Oct 8
Last Quarter
Oct 15
New
Oct 21
First Quarter
Oct 29
Full

Hourly Weather History & Observations

Time (CDT) Temp. Windchill Dew Point Humidity Pressure Visibility Wind Dir Wind Speed Gust Speed Precip Events Conditions
12:53 AM 46.9 °F - 43.0 °F 86% 30.05 in 10.0 mi North 4.6 mph - N/A   Clear
1:53 AM 45.0 °F 42.6 °F 42.1 °F 90% 30.06 in 10.0 mi North 4.6 mph - N/A   Clear
2:13 AM 42.8 °F - 41.0 °F 93% 30.05 in 10.0 mi Calm Calm - N/A   Mostly Cloudy
2:42 AM 42.8 °F - 39.2 °F 87% 30.04 in 10.0 mi Calm Calm - N/A   Mostly Cloudy
2:53 AM 43.0 °F 39.5 °F 39.9 °F 89% 30.05 in 10.0 mi North 5.8 mph - N/A   Scattered Clouds
3:53 AM 42.1 °F 38.4 °F 39.9 °F 92% 30.04 in 10.0 mi NNW 5.8 mph - N/A   Clear
4:14 AM 42.8 °F 39.3 °F 41.0 °F 93% 30.03 in 10.0 mi North 5.8 mph - N/A   Scattered Clouds
4:23 AM 44.6 °F 41.4 °F 42.8 °F 93% 30.03 in 10.0 mi NNW 5.8 mph - N/A   Mostly Cloudy
4:53 AM 45.0 °F 40.6 °F 43.0 °F 93% 30.04 in 10.0 mi North 8.1 mph - N/A   Overcast
5:53 AM 46.0 °F 42.5 °F 43.0 °F 89% 30.04 in 10.0 mi North 6.9 mph - N/A   Overcast
6:53 AM 46.9 °F - 44.1 °F 90% 30.05 in 10.0 mi North 6.9 mph - N/A   Overcast
7:07 AM 46.4 °F 42.4 °F 44.6 °F 93% 30.04 in 10.0 mi North 8.1 mph - N/A   Overcast
7:53 AM 48.9 °F - 46.9 °F 93% 30.05 in 9.0 mi North 4.6 mph - N/A   Overcast
8:53 AM 51.1 °F - 46.9 °F 86% 30.06 in 10.0 mi Calm Calm - N/A   Overcast
9:15 AM 51.8 °F - 48.2 °F 88% 30.05 in 10.0 mi NNE 3.5 mph - N/A   Overcast
9:53 AM 52.0 °F - 48.0 °F 86% 30.07 in 10.0 mi ENE 4.6 mph - N/A   Overcast
10:53 AM 54.0 °F - 48.9 °F 83% 30.06 in 10.0 mi NNE 3.5 mph - N/A   Overcast
11:36 AM 57.2 °F - 50.0 °F 77% 30.05 in 10.0 mi Calm Calm - N/A   Mostly Cloudy
11:53 AM 57.0 °F - 50.0 °F 77% 30.06 in 10.0 mi Calm Calm - N/A   Mostly Cloudy
12:15 PM 59.0 °F - 48.2 °F 67% 30.04 in 9.0 mi Calm Calm - N/A   Scattered Clouds
12:53 PM 61.0 °F - 48.9 °F 64% 30.04 in 10.0 mi Calm Calm - N/A   Scattered Clouds
1:53 PM 62.1 °F - 46.0 °F 56% 30.02 in 10.0 mi Calm Calm - N/A   Partly Cloudy
2:53 PM 64.0 °F - 48.9 °F 58% 30.00 in 10.0 mi ENE 5.8 mph - N/A   Partly Cloudy
3:53 PM 64.9 °F - 46.9 °F 52% 29.99 in 10.0 mi ENE 5.8 mph - N/A   Partly Cloudy
4:53 PM 64.0 °F - 46.0 °F 52% 29.99 in 10.0 mi Variable 5.8 mph - N/A   Clear
5:53 PM 61.0 °F - 46.9 °F 60% 29.98 in 10.0 mi ENE 4.6 mph - N/A   Clear
6:53 PM 54.0 °F - 45.0 °F 72% 29.99 in 10.0 mi East 5.8 mph - N/A   Clear
7:53 PM 52.0 °F - 44.1 °F 74% 29.99 in 10.0 mi SE 4.6 mph - N/A   Clear
8:53 PM 50.0 °F - 45.0 °F 83% 29.99 in 10.0 mi SSE 3.5 mph - N/A   Clear
9:53 PM 46.0 °F - 42.1 °F 86% 29.99 in 10.0 mi Calm Calm - N/A   Clear
10:53 PM 44.6 °F 43.1 °F 42.8 °F 93% 29.97 in 10.0 mi West 3.5 mph - N/A   Clear
11:53 PM 45.0 °F - 42.1 °F 90% 29.98 in 10.0 mi Calm Calm - N/A   Clear